This is the latest recevied weather packets stored in our database for station/object IT9CNT. If no packets are shown the sender has not sent any weather packets the latest 1 day(s).
| Time | Temp. | Humidity | Pressure | Rain* | Wind** | Luminosity | Snow |
|---|---|---|---|---|---|---|---|
| 1777993743 | 18.89° C | 81% | 1013.2 hPa | 0 mm | 3.13 m/s, 172° | - | - |
| 1777993683 | 18.33° C | 81% | 1013.3 hPa | 0 mm | 3.13 m/s, 169° | - | - |
| 1777993623 | 18.33° C | 81% | 1013.1 hPa | 0 mm | 3.13 m/s, 171° | - | - |
| 1777993563 | 18.33° C | 81% | 1013 hPa | 0 mm | 3.13 m/s, 167° | - | - |
| 1777993503 | 18.33° C | 82% | 1013.3 hPa | 0 mm | 3.58 m/s, 165° | - | - |
| 1777993443 | 18.33° C | 82% | 1013.3 hPa | 0 mm | 3.58 m/s, 166° | - | - |
| 1777993383 | 18.33° C | 82% | 1013.1 hPa | 0 mm | 3.58 m/s, 167° | - | - |
| 1777993323 | 18.89° C | 81% | 1013.2 hPa | 0 mm | 3.13 m/s, 165° | - | - |
| 1777993263 | 18.33° C | 81% | 1013.3 hPa | 0 mm | 3.58 m/s, 163° | - | - |
| 1777993203 | 18.33° C | 81% | 1013 hPa | 0 mm | 3.58 m/s, 158° | - | - |
| 1777993143 | 18.33° C | 81% | 1013.3 hPa | 0 mm | 3.58 m/s, 161° | - | - |
| 1777993084 | 18.33° C | 81% | 1012.8 hPa | 0 mm | 3.58 m/s, 162° | - | - |
| 1777993023 | 18.89° C | 81% | 1013 hPa | 0 mm | 3.13 m/s, 164° | - | - |
| 1777992963 | 18.89° C | 82% | 1012.9 hPa | 0 mm | 3.58 m/s, 163° | - | - |
| 1777992903 | 18.33° C | 81% | 1012.9 hPa | 0 mm | 3.58 m/s, 163° | - | - |
| 1777992843 | 18.89° C | 81% | 1013.1 hPa | 0 mm | 3.58 m/s, 162° | - | - |
| 1777992783 | 18.89° C | 81% | 1013 hPa | 0 mm | 3.58 m/s, 157° | - | - |
| 1777992723 | 18.89° C | 81% | 1012.9 hPa | 0 mm | 3.58 m/s, 151° | - | - |
| 1777992663 | 18.89° C | 81% | 1013 hPa | 0 mm | 3.58 m/s, 152° | - | - |
| 1777992603 | 18.33° C | 81% | 1013.1 hPa | 0 mm | 3.58 m/s, 151° | - | - |
| 1777992543 | 18.33° C | 80% | 1012.9 hPa | 0 mm | 3.58 m/s, 141° | - | - |
| 1777992423 | 18.33° C | 81% | 1013.2 hPa | 0 mm | 3.58 m/s, 140° | - | - |
| 1777992363 | 18.33° C | 80% | 1013.2 hPa | 0 mm | 3.58 m/s, 139° | - | - |
| 1777992303 | 18.89° C | 80% | 1013 hPa | 0 mm | 3.58 m/s, 140° | - | - |
| 1777992243 | 18.33° C | 79% | 1013.1 hPa | 0 mm | 3.58 m/s, 139° | - | - |
* Rain latest hour (hover to see other rain measurements)
** Current wind speed in m/s (hover to see current wind gust speed)